Time,TemperatureF,DewpointF,PressureIn,WindDirection,WindDirectionDegrees,WindSpeedMPH,WindSpeedGustMPH,Humidity,HourlyPrecipIn,Conditions,Clouds,dailyrainin,SoftwareType,DateUTC
2013-07-31 00:00:00,60.2,58.1,30.19,South,175,0.0,0.0,93,0.00,,,0.00,WUHU216DAVISVP2,2013-07-31 04:00:00,
2013-07-31 00:01:00,60.2,58.1,30.19,South,175,0.0,0.0,93,0.00,,,0.00,WUHU216DAVISVP2,2013-07-31 04:01:00,
2013-07-31 00:02:00,60.2,58.1,30.19,South,175,0.0,0.0,93,0.00,,,0.00,WUHU216DAVISVP2,2013-07-31 04:02:00,
2013-07-31 00:07:00,60.2,58.1,30.19,South,175,0.0,0.0,93,0.00,,,0.00,WUHU216DAVISVP2,2013-07-31 04:07:00,
2013-07-31 00:12:00,60.1,58.3,30.19,South,175,0.0,0.0,94,0.00,,,0.00,WUHU216DAVISVP2,2013-07-31 04:12:00,
2013-07-31 00:17:00,60.0,58.2,30.19,South,175,0.0,0.0,94,0.00,,,0.00,WUHU216DAVISVP2,2013-07-31 04:17:00,
2013-07-31 00:22:00,59.9,58.1,30.19,South,175,0.0,0.0,94,0.00,,,0.00,WUHU216DAVISVP2,2013-07-31 04:22:00,
2013-07-31 00:28:00,59.8,58.0,30.19,South,175,0.0,0.0,94,0.00,,,0.00,WUHU216DAVISVP2,2013-07-31 04:28:00,
2013-07-31 00:33:00,59.7,57.9,30.19,South,177,0.0,2.0,94,0.00,,,0.00,WUHU216DAVISVP2,2013-07-31 04:33:00,
2013-07-31 00:38:00,59.7,57.9,30.19,South,177,0.0,2.0,94,0.00,,,0.00,WUHU216DAVISVP2,2013-07-31 04:38:00,
2013-07-31 00:43:00,59.7,58.2,30.19,South,177,0.0,2.0,95,0.00,,,0.00,WUHU216DAVISVP2,2013-07-31 04:43:00,
2013-07-31 00:48:00,59.8,58.3,30.19,South,177,0.0,0.0,95,0.00,,,0.00,WUHU216DAVISVP2,2013-07-31 04:48:00,
2013-07-31 00:53:00,59.8,58.3,30.19,South,177,0.0,0.0,95,0.00,,,0.00,WUHU216DAVISVP2,2013-07-31 04:53:00,
2013-07-31 00:58:00,59.7,58.2,30.19,South,177,0.0,0.0,95,0.00,,,0.00,WUHU216DAVISVP2,2013-07-31 04:58:00,
2013-07-31 01:04:00,59.6,58.2,30.19,North,0,0.0,0.0,95,0.00,,,0.00,WUHU216DAVISVP2,2013-07-31 05:04:00,
2013-07-31 01:09:00,59.6,58.1,30.19,South,177,0.0,0.0,95,0.00,,,0.00,WUHU216DAVISVP2,2013-07-31 05:09:00,
2013-07-31 01:15:00,59.7,58.2,30.18,South,177,0.0,0.0,95,0.00,,,0.00,WUHU216DAVISVP2,2013-07-31 05:15:00,
2013-07-31 01:20:00,59.7,58.2,30.18,South,177,0.0,0.0,95,0.00,,,0.00,WUHU216DAVISVP2,2013-07-31 05:20:00,
2013-07-31 01:25:00,59.8,58.3,30.18,South,177,0.0,0.0,95,0.00,,,0.00,WUHU216DAVISVP2,2013-07-31 05:25:00,
2013-07-31 01:30:00,59.9,58.4,30.18,South,177,0.0,2.0,95,0.00,,,0.00,WUHU216DAVISVP2,2013-07-31 05:30:00,
2013-07-31 01:35:00,60.0,58.5,30.18,South,177,0.0,2.0,95,0.00,,,0.00,WUHU216DAVISVP2,2013-07-31 05:35:00,
2013-07-31 01:40:00,60.1,58.6,30.18,South,177,0.0,2.0,95,0.00,,,0.00,WUHU216DAVISVP2,2013-07-31 05:40:00,
2013-07-31 01:45:00,60.2,58.7,30.18,South,177,0.0,2.0,95,0.00,,,0.00,WUHU216DAVISVP2,2013-07-31 05:45:00,
2013-07-31 01:50:00,60.2,58.7,30.18,South,177,0.0,2.0,95,0.00,,,0.00,WUHU216DAVISVP2,2013-07-31 05:50:00,
2013-07-31 01:55:00,60.2,58.7,30.18,South,177,0.0,0.0,95,0.00,,,0.00,WUHU216DAVISVP2,2013-07-31 05:55:00,
2013-07-31 02:00:00,60.2,58.7,30.18,South,177,0.0,0.0,95,0.00,,,0.00,WUHU216DAVISVP2,2013-07-31 06:00:00,
2013-07-31 02:05:00,60.2,58.7,30.18,South,177,0.0,0.0,95,0.00,,,0.00,WUHU216DAVISVP2,2013-07-31 06:05:00,
2013-07-31 02:10:00,60.2,58.7,30.18,South,177,0.0,0.0,95,0.00,,,0.00,WUHU216DAVISVP2,2013-07-31 06:10:00,
2013-07-31 02:15:00,60.2,58.7,30.17,South,177,0.0,0.0,95,0.00,,,0.00,WUHU216DAVISVP2,2013-07-31 06:15:00,
2013-07-31 02:20:00,60.2,58.7,30.17,South,177,0.0,2.0,95,0.00,,,0.00,WUHU216DAVISVP2,2013-07-31 06:20:00,
2013-07-31 02:25:00,60.2,58.7,30.17,South,177,0.0,2.0,95,0.00,,,0.00,WUHU216DAVISVP2,2013-07-31 06:25:00,
2013-07-31 02:30:00,60.2,58.7,30.17,South,177,0.0,0.0,95,0.00,,,0.00,WUHU216DAVISVP2,2013-07-31 06:30:00,
2013-07-31 02:35:00,60.1,58.6,30.17,South,177,0.0,0.0,95,0.00,,,0.00,WUHU216DAVISVP2,2013-07-31 06:35:00,
2013-07-31 02:40:00,60.0,58.2,30.17,South,177,0.0,0.0,94,0.00,,,0.00,WUHU216DAVISVP2,2013-07-31 06:40:00,
2013-07-31 02:45:00,59.8,58.0,30.17,South,177,0.0,0.0,94,0.00,,,0.00,WUHU216DAVISVP2,2013-07-31 06:45:00,
2013-07-31 02:50:00,59.6,57.8,30.17,South,177,0.0,0.0,94,0.00,,,0.00,WUHU216DAVISVP2,2013-07-31 06:50:00,
2013-07-31 02:56:00,59.5,58.0,30.17,South,177,0.0,0.0,95,0.00,,,0.00,WUHU216DAVISVP2,2013-07-31 06:56:00,
2013-07-31 03:01:00,59.5,58.0,30.17,South,180,2.0,4.0,95,0.00,,,0.00,WUHU216DAVISVP2,2013-07-31 07:01:00,
2013-07-31 03:06:00,59.8,58.6,30.17,South,173,4.0,4.0,96,0.00,,,0.00,WUHU216DAVISVP2,2013-07-31 07:06:00,
2013-07-31 03:11:00,60.1,58.6,30.17,South,179,6.0,6.0,95,0.00,,,0.00,WUHU216DAVISVP2,2013-07-31 07:11:00,
2013-07-31 03:16:00,60.4,58.6,30.17,SSE,153,0.0,6.0,94,0.00,,,0.00,WUHU216DAVISVP2,2013-07-31 07:16:00,
2013-07-31 03:21:00,60.9,58.8,30.17,South,169,0.0,6.0,93,0.00,,,0.00,WUHU216DAVISVP2,2013-07-31 07:21:00,
2013-07-31 03:26:00,61.2,58.5,30.17,South,171,0.0,6.0,91,0.00,,,0.00,WUHU216DAVISVP2,2013-07-31 07:26:00,
2013-07-31 03:31:00,61.6,58.9,30.16,SW,215,0.0,6.0,91,0.00,,,0.00,WUHU216DAVISVP2,2013-07-31 07:31:00,
2013-07-31 03:36:00,61.8,58.8,30.16,SSE,158,0.0,8.0,90,0.00,,,0.00,WUHU216DAVISVP2,2013-07-31 07:36:00,
2013-07-31 03:41:00,61.9,58.6,30.16,SSE,168,0.0,8.0,89,0.00,,,0.00,WUHU216DAVISVP2,2013-07-31 07:41:00,
2013-07-31 03:46:00,62.0,58.4,30.16,SSW,198,0.0,4.0,88,0.00,,,0.00,WUHU216DAVISVP2,2013-07-31 07:46:00,
2013-07-31 03:51:00,62.1,58.5,30.16,South,184,0.0,4.0,88,0.00,,,0.00,WUHU216DAVISVP2,2013-07-31 07:51:00,
2013-07-31 03:56:00,62.2,58.3,30.16,SE,139,0.0,8.0,87,0.00,,,0.00,WUHU216DAVISVP2,2013-07-31 07:56:00,
2013-07-31 04:01:00,62.3,58.1,30.16,SSW,198,0.0,8.0,86,0.00,,,0.00,WUHU216DAVISVP2,2013-07-31 08:01:00,
2013-07-31 04:06:00,62.4,58.2,30.16,SSW,196,2.0,6.0,86,0.00,,,0.00,WUHU216DAVISVP2,2013-07-31 08:06:00,
2013-07-31 04:11:00,62.5,57.9,30.16,SSE,164,2.0,8.0,85,0.00,,,0.00,WUHU216DAVISVP2,2013-07-31 08:11:00,
2013-07-31 04:16:00,62.7,57.8,30.15,SSE,155,0.0,8.0,84,0.00,,,0.00,WUHU216DAVISVP2,2013-07-31 08:16:00,
2013-07-31 04:21:00,62.8,57.9,30.15,South,179,0.0,8.0,84,0.00,,,0.00,WUHU216DAVISVP2,2013-07-31 08:21:00,
2013-07-31 04:26:00,62.9,58.3,30.16,SSE,161,0.0,8.0,85,0.00,,,0.00,WUHU216DAVISVP2,2013-07-31 08:26:00,
2013-07-31 04:31:00,62.7,58.5,30.16,SSE,161,0.0,4.0,86,0.00,,,0.00,WUHU216DAVISVP2,2013-07-31 08:31:00,
2013-07-31 04:37:00,62.5,58.3,30.16,SSE,166,0.0,4.0,86,0.00,,,0.00,WUHU216DAVISVP2,2013-07-31 08:37:00,
2013-07-31 04:42:00,62.4,58.2,30.16,SSE,166,0.0,2.0,86,0.00,,,0.00,WUHU216DAVISVP2,2013-07-31 08:42:00,
2013-07-31 04:47:00,62.3,58.4,30.15,South,183,0.0,4.0,87,0.00,,,0.00,WUHU216DAVISVP2,2013-07-31 08:47:00,
2013-07-31 04:52:00,62.2,58.6,30.15,South,186,0.0,4.0,88,0.00,,,0.00,WUHU216DAVISVP2,2013-07-31 08:52:00,
2013-07-31 04:57:00,62.1,58.5,30.15,SSE,148,0.0,6.0,88,0.00,,,0.00,WUHU216DAVISVP2,2013-07-31 08:57:00,
2013-07-31 05:02:00,62.0,58.4,30.15,SSE,149,0.0,6.0,88,0.00,,,0.00,WUHU216DAVISVP2,2013-07-31 09:02:00,
2013-07-31 05:07:00,62.0,58.4,30.15,South,180,0.0,6.0,88,0.00,,,0.00,WUHU216DAVISVP2,2013-07-31 09:07:00,
2013-07-31 05:12:00,62.1,58.5,30.15,South,171,0.0,6.0,88,0.00,,,0.00,WUHU216DAVISVP2,2013-07-31 09:12:00,
2013-07-31 05:17:00,62.2,58.6,30.15,South,169,0.0,4.0,88,0.00,,,0.00,WUHU216DAVISVP2,2013-07-31 09:17:00,
2013-07-31 05:22:00,62.2,58.9,30.15,SSE,168,0.0,4.0,89,0.00,,,0.00,WUHU216DAVISVP2,2013-07-31 09:22:00,
2013-07-31 05:27:00,61.8,58.5,30.15,SSE,168,0.0,4.0,89,0.00,,,0.00,WUHU216DAVISVP2,2013-07-31 09:27:00,
2013-07-31 05:32:00,61.2,58.2,30.15,SSE,168,0.0,2.0,90,0.00,,,0.00,WUHU216DAVISVP2,2013-07-31 09:32:00,
2013-07-31 05:37:00,61.0,58.3,30.15,SSE,167,0.0,4.0,91,0.00,,,0.00,WUHU216DAVISVP2,2013-07-31 09:37:00,
2013-07-31 05:42:00,60.9,58.2,30.15,South,175,4.0,4.0,91,0.00,,,0.00,WUHU216DAVISVP2,2013-07-31 09:42:00,
2013-07-31 05:47:00,61.0,58.3,30.15,SSE,153,0.0,6.0,91,0.00,,,0.00,WUHU216DAVISVP2,2013-07-31 09:47:00,
2013-07-31 05:52:00,61.1,58.4,30.15,ESE,123,0.0,6.0,91,0.00,,,0.00,WUHU216DAVISVP2,2013-07-31 09:52:00,
2013-07-31 05:57:00,61.2,58.2,30.15,SSE,161,0.0,4.0,90,0.00,,,0.00,WUHU216DAVISVP2,2013-07-31 09:57:00,
2013-07-31 06:02:00,61.2,58.2,30.15,SSE,161,0.0,4.0,90,0.00,,,0.00,WUHU216DAVISVP2,2013-07-31 10:02:00,
2013-07-31 06:07:00,61.1,58.4,30.15,SSE,161,0.0,2.0,91,0.00,,,0.00,WUHU216DAVISVP2,2013-07-31 10:07:00,
2013-07-31 06:12:00,60.9,58.5,30.15,SSE,161,0.0,4.0,92,0.00,,,0.00,WUHU216DAVISVP2,2013-07-31 10:12:00,
2013-07-31 06:17:00,60.8,58.4,30.15,SSE,166,0.0,4.0,92,0.00,,,0.00,WUHU216DAVISVP2,2013-07-31 10:17:00,
2013-07-31 06:23:00,60.6,58.2,30.15,SSW,196,0.0,4.0,92,0.00,,,0.00,WUHU216DAVISVP2,2013-07-31 10:23:00,
2013-07-31 06:28:00,60.2,57.8,30.15,SSW,195,2.0,2.0,92,0.00,,,0.00,WUHU216DAVISVP2,2013-07-31 10:28:00,
2013-07-31 06:33:00,60.0,57.9,30.15,SSW,195,2.0,4.0,93,0.00,,,0.00,WUHU216DAVISVP2,2013-07-31 10:33:00,
2013-07-31 06:38:00,60.1,58.0,30.15,SSW,194,0.0,6.0,93,0.00,,,0.00,WUHU216DAVISVP2,2013-07-31 10:38:00,
2013-07-31 06:43:00,60.0,57.9,30.15,SSW,194,0.0,6.0,93,0.00,,,0.00,WUHU216DAVISVP2,2013-07-31 10:43:00,
2013-07-31 06:48:00,59.6,57.5,30.15,SSW,194,0.0,0.0,93,0.00,,,0.00,WUHU216DAVISVP2,2013-07-31 10:48:00,
2013-07-31 06:53:00,59.4,57.3,30.15,SE,124,0.0,6.0,93,0.00,,,0.00,WUHU216DAVISVP2,2013-07-31 10:53:00,
2013-07-31 06:58:00,59.5,57.7,30.15,South,184,4.0,10.0,94,0.00,,,0.00,WUHU216DAVISVP2,2013-07-31 10:58:00,
2013-07-31 07:03:00,60.0,58.2,30.15,South,184,2.0,10.0,94,0.00,,,0.00,WUHU216DAVISVP2,2013-07-31 11:03:00,
2013-07-31 07:08:00,60.6,58.5,30.15,East,100,0.0,10.0,93,0.00,,,0.00,WUHU216DAVISVP2,2013-07-31 11:08:00,
2013-07-31 07:13:00,61.2,58.8,30.15,South,170,6.0,10.0,92,0.00,,,0.00,WUHU216DAVISVP2,2013-07-31 11:13:00,
2013-07-31 07:18:00,61.5,58.8,30.15,SSW,193,2.0,8.0,91,0.00,,,0.00,WUHU216DAVISVP2,2013-07-31 11:18:00,
2013-07-31 07:23:00,61.9,58.9,30.15,South,181,6.0,8.0,90,0.00,,,0.00,WUHU216DAVISVP2,2013-07-31 11:23:00,
2013-07-31 07:28:00,62.2,59.2,30.15,South,186,4.0,10.0,90,0.00,,,0.00,WUHU216DAVISVP2,2013-07-31 11:28:00,
2013-07-31 07:33:00,62.6,59.3,30.15,South,182,4.0,12.0,89,0.00,,,0.00,WUHU216DAVISVP2,2013-07-31 11:33:00,
2013-07-31 07:38:00,62.8,59.2,30.15,SW,219,2.0,12.0,88,0.00,,,0.00,WUHU216DAVISVP2,2013-07-31 11:38:00,
2013-07-31 07:43:00,63.2,59.6,30.15,South,173,8.0,10.0,88,0.00,,,0.00,WUHU216DAVISVP2,2013-07-31 11:43:00,
2013-07-31 07:48:00,63.8,59.9,30.15,South,186,0.0,10.0,87,0.00,,,0.00,WUHU216DAVISVP2,2013-07-31 11:48:00,
2013-07-31 07:53:00,64.2,59.9,30.15,SSE,151,6.0,10.0,86,0.00,,,0.00,WUHU216DAVISVP2,2013-07-31 11:53:00,
2013-07-31 07:58:00,64.7,60.4,30.15,South,177,8.0,12.0,86,0.00,,,0.00,WUHU216DAVISVP2,2013-07-31 11:58:00,
2013-07-31 08:03:00,65.2,60.6,30.15,South,180,0.0,12.0,85,0.00,,,0.00,WUHU216DAVISVP2,2013-07-31 12:03:00,
2013-07-31 08:08:00,65.4,60.5,30.14,South,169,0.0,10.0,84,0.00,,,0.00,WUHU216DAVISVP2,2013-07-31 12:08:00,
2013-07-31 08:13:00,65.4,60.5,30.14,South,175,0.0,10.0,84,0.00,,,0.00,WUHU216DAVISVP2,2013-07-31 12:13:00,
2013-07-31 08:18:00,65.5,60.6,30.14,South,172,2.0,12.0,84,0.00,,,0.00,WUHU216DAVISVP2,2013-07-31 12:18:00,
2013-07-31 08:24:00,65.6,60.7,30.14,SSE,152,0.0,12.0,84,0.00,,,0.00,WUHU216DAVISVP2,2013-07-31 12:24:00,
2013-07-31 08:29:00,66.0,61.1,30.14,South,183,0.0,10.0,84,0.00,,,0.00,WUHU216DAVISVP2,2013-07-31 12:29:00,
2013-07-31 08:34:00,66.5,61.5,30.14,SSE,167,0.0,10.0,84,0.00,,,0.00,WUHU216DAVISVP2,2013-07-31 12:34:00,
2013-07-31 08:39:00,67.1,61.5,30.14,SSE,161,0.0,8.0,82,0.00,,,0.00,WUHU216DAVISVP2,2013-07-31 12:39:00,
2013-07-31 08:44:00,67.6,62.0,30.14,SSW,196,0.0,10.0,82,0.00,,,0.00,WUHU216DAVISVP2,2013-07-31 12:44:00,
2013-07-31 08:49:00,67.8,61.5,30.14,SSW,192,4.0,10.0,80,0.00,,,0.00,WUHU216DAVISVP2,2013-07-31 12:49:00,
2013-07-31 08:54:00,68.1,61.8,30.14,South,178,2.0,8.0,80,0.00,,,0.00,WUHU216DAVISVP2,2013-07-31 12:54:00,
2013-07-31 08:59:00,68.3,62.0,30.14,SSE,157,12.0,12.0,80,0.00,,,0.00,WUHU216DAVISVP2,2013-07-31 12:59:00,
2013-07-31 09:04:00,68.6,62.3,30.14,WSW,254,6.0,12.0,80,0.00,,,0.00,WUHU216DAVISVP2,2013-07-31 13:04:00,
2013-07-31 09:09:00,69.3,61.9,30.14,SW,220,4.0,12.0,77,0.00,,,0.00,WUHU216DAVISVP2,2013-07-31 13:09:00,
2013-07-31 09:14:00,69.9,62.5,30.14,SE,137,0.0,12.0,77,0.00,,,0.00,WUHU216DAVISVP2,2013-07-31 13:14:00,
2013-07-31 09:19:00,70.4,62.6,30.14,SSE,165,2.0,12.0,76,0.00,,,0.00,WUHU216DAVISVP2,2013-07-31 13:19:00,
2013-07-31 09:24:00,70.4,62.6,30.14,South,169,0.0,12.0,76,0.00,,,0.00,WUHU216DAVISVP2,2013-07-31 13:24:00,
2013-07-31 09:29:00,70.6,62.1,30.14,SSW,196,2.0,14.0,74,0.00,,,0.00,WUHU216DAVISVP2,2013-07-31 13:29:00,
2013-07-31 09:34:00,71.0,62.8,30.14,West,276,2.0,14.0,75,0.00,,,0.00,WUHU216DAVISVP2,2013-07-31 13:34:00,
2013-07-31 09:39:00,71.5,63.3,30.14,SW,236,2.0,8.0,75,0.00,,,0.00,WUHU216DAVISVP2,2013-07-31 13:39:00,
2013-07-31 09:44:00,72.0,63.0,30.14,South,182,0.0,6.0,73,0.00,,,0.00,WUHU216DAVISVP2,2013-07-31 13:44:00,
2013-07-31 09:49:00,72.6,63.6,30.14,SW,233,8.0,8.0,73,0.00,,,0.00,WUHU216DAVISVP2,2013-07-31 13:49:00,
2013-07-31 09:54:00,72.7,62.9,30.14,SE,140,0.0,14.0,71,0.00,,,0.00,WUHU216DAVISVP2,2013-07-31 13:54:00,
2013-07-31 09:59:00,72.6,62.8,30.13,South,183,2.0,14.0,71,0.00,,,0.00,WUHU216DAVISVP2,2013-07-31 13:59:00,
2013-07-31 10:05:00,72.4,62.6,30.13,West,259,0.0,8.0,71,0.00,,,0.00,WUHU216DAVISVP2,2013-07-31 14:05:00,
2013-07-31 10:10:00,72.3,62.9,30.13,SSE,163,4.0,8.0,72,0.00,,,0.00,WUHU216DAVISVP2,2013-07-31 14:10:00,
2013-07-31 10:15:00,72.5,63.5,30.13,South,178,2.0,8.0,73,0.00,,,0.00,WUHU216DAVISVP2,2013-07-31 14:15:00,
2013-07-31 10:20:00,72.8,63.0,30.13,SSW,210,4.0,10.0,71,0.00,,,0.00,WUHU216DAVISVP2,2013-07-31 14:20:00,
2013-07-31 10:25:00,73.0,63.2,30.13,South,184,2.0,10.0,71,0.00,,,0.00,WUHU216DAVISVP2,2013-07-31 14:25:00,
2013-07-31 10:30:00,73.3,63.9,30.13,WSW,252,6.0,10.0,72,0.00,,,0.00,WUHU216DAVISVP2,2013-07-31 14:30:00,
2013-07-31 10:35:00,73.7,63.5,30.13,SSE,158,4.0,12.0,70,0.00,,,0.00,WUHU216DAVISVP2,2013-07-31 14:35:00,
2013-07-31 10:40:00,74.2,64.4,30.12,WSW,257,2.0,14.0,71,0.00,,,0.00,WUHU216DAVISVP2,2013-07-31 14:40:00,
2013-07-31 10:45:00,74.7,64.9,30.12,South,183,2.0,14.0,71,0.00,,,0.00,WUHU216DAVISVP2,2013-07-31 14:45:00,
2013-07-31 10:50:00,75.0,64.3,30.12,South,185,6.0,12.0,69,0.00,,,0.00,WUHU216DAVISVP2,2013-07-31 14:50:00,
2013-07-31 10:56:00,75.2,64.1,30.12,South,180,10.0,12.0,68,0.00,,,0.00,WUHU216DAVISVP2,2013-07-31 14:56:00,
2013-07-31 11:01:00,75.0,64.3,30.11,SSW,194,6.0,14.0,69,0.00,,,0.00,WUHU216DAVISVP2,2013-07-31 15:01:00,
2013-07-31 11:06:00,74.9,64.7,30.11,SE,139,2.0,14.0,70,0.00,,,0.00,WUHU216DAVISVP2,2013-07-31 15:06:00,
2013-07-31 11:11:00,74.8,65.0,30.11,South,169,0.0,8.0,71,0.00,,,0.00,WUHU216DAVISVP2,2013-07-31 15:11:00,
2013-07-31 11:16:00,74.6,64.0,30.11,ESE,123,0.0,14.0,69,0.00,,,0.00,WUHU216DAVISVP2,2013-07-31 15:16:00,
2013-07-31 11:21:00,74.6,64.4,30.11,NNE,15,0.0,14.0,70,0.00,,,0.00,WUHU216DAVISVP2,2013-07-31 15:21:00,
2013-07-31 11:26:00,74.6,65.2,30.11,SSW,197,6.0,12.0,72,0.00,,,0.00,WUHU216DAVISVP2,2013-07-31 15:26:00,
2013-07-31 11:31:00,74.7,64.1,30.11,SSW,201,0.0,12.0,69,0.00,,,0.00,WUHU216DAVISVP2,2013-07-31 15:31:00,
2013-07-31 11:36:00,75.0,64.8,30.11,SE,142,0.0,12.0,70,0.00,,,0.00,WUHU216DAVISVP2,2013-07-31 15:36:00,
2013-07-31 11:41:00,75.2,64.5,30.11,SSW,208,0.0,10.0,69,0.00,,,0.00,WUHU216DAVISVP2,2013-07-31 15:41:00,
2013-07-31 11:46:00,75.3,63.8,30.11,SSE,147,10.0,10.0,67,0.00,,,0.00,WUHU216DAVISVP2,2013-07-31 15:46:00,
2013-07-31 11:51:00,75.2,64.1,30.10,East,79,0.0,10.0,68,0.00,,,0.00,WUHU216DAVISVP2,2013-07-31 15:51:00,
2013-07-31 11:56:00,74.9,64.2,30.10,WSW,255,0.0,10.0,69,0.00,,,0.00,WUHU216DAVISVP2,2013-07-31 15:56:00,
2013-07-31 12:01:00,75.0,63.5,30.10,WSW,238,0.0,6.0,67,0.00,,,0.00,WUHU216DAVISVP2,2013-07-31 16:01:00,
2013-07-31 12:06:00,75.3,64.2,30.10,WSW,246,0.0,6.0,68,0.00,,,0.00,WUHU216DAVISVP2,2013-07-31 16:06:00,
2013-07-31 12:11:00,75.4,63.0,30.10,WNW,300,2.0,6.0,65,0.00,,,0.00,WUHU216DAVISVP2,2013-07-31 16:11:00,
2013-07-31 12:17:00,75.5,63.6,30.10,SW,217,0.0,6.0,66,0.00,,,0.00,WUHU216DAVISVP2,2013-07-31 16:17:00,
2013-07-31 12:22:00,75.8,64.3,30.10,ESE,110,6.0,8.0,67,0.00,,,0.00,WUHU216DAVISVP2,2013-07-31 16:22:00,
2013-07-31 12:27:00,75.6,64.1,30.10,SSW,192,2.0,12.0,67,0.00,,,0.00,WUHU216DAVISVP2,2013-07-31 16:27:00,
2013-07-31 12:32:00,75.3,64.6,30.10,SSE,153,2.0,12.0,69,0.00,,,0.00,WUHU216DAVISVP2,2013-07-31 16:32:00,
2013-07-31 12:37:00,75.1,64.4,30.10,SSE,165,4.0,12.0,69,0.00,,,0.00,WUHU216DAVISVP2,2013-07-31 16:37:00,
2013-07-31 12:42:00,75.3,65.0,30.10,SSE,158,14.0,14.0,70,0.00,,,0.00,WUHU216DAVISVP2,2013-07-31 16:42:00,
2013-07-31 12:47:00,75.8,63.4,30.10,NNW,333,2.0,14.0,65,0.00,,,0.00,WUHU216DAVISVP2,2013-07-31 16:47:00,
2013-07-31 12:52:00,76.0,64.9,30.09,WSW,248,0.0,14.0,68,0.00,,,0.00,WUHU216DAVISVP2,2013-07-31 16:52:00,
2013-07-31 12:57:00,76.0,63.2,30.09,ESE,108,4.0,16.0,64,0.00,,,0.00,WUHU216DAVISVP2,2013-07-31 16:57:00,
2013-07-31 13:03:00,76.0,62.7,30.09,SW,217,0.0,16.0,63,0.00,,,0.00,WUHU216DAVISVP2,2013-07-31 17:03:00,
2013-07-31 13:08:00,76.1,62.4,30.09,WNW,284,4.0,16.0,62,0.00,,,0.00,WUHU216DAVISVP2,2013-07-31 17:08:00,
2013-07-31 13:13:00,75.6,62.3,30.09,South,169,0.0,16.0,63,0.00,,,0.00,WUHU216DAVISVP2,2013-07-31 17:13:00,
2013-07-31 13:18:00,75.8,63.0,30.08,SSE,167,4.0,16.0,64,0.00,,,0.00,WUHU216DAVISVP2,2013-07-31 17:18:00,
2013-07-31 13:23:00,76.6,63.7,30.08,WSW,240,0.0,12.0,64,0.00,,,0.00,WUHU216DAVISVP2,2013-07-31 17:23:00,
2013-07-31 13:28:00,76.9,64.0,30.08,SW,224,8.0,12.0,64,0.00,,,0.00,WUHU216DAVISVP2,2013-07-31 17:28:00,
2013-07-31 13:33:00,76.2,63.8,30.09,SSE,160,6.0,14.0,65,0.00,,,0.00,WUHU216DAVISVP2,2013-07-31 17:33:00,
2013-07-31 13:38:00,75.4,63.5,30.09,SSW,211,0.0,14.0,66,0.00,,,0.00,WUHU216DAVISVP2,2013-07-31 17:38:00,
2013-07-31 13:43:00,75.0,64.3,30.09,SSE,165,2.0,12.0,69,0.00,,,0.00,WUHU216DAVISVP2,2013-07-31 17:43:00,
2013-07-31 13:48:00,74.6,64.0,30.08,ESE,115,2.0,8.0,69,0.00,,,0.00,WUHU216DAVISVP2,2013-07-31 17:48:00,
2013-07-31 13:53:00,74.4,63.8,30.08,South,186,6.0,6.0,69,0.00,,,0.00,WUHU216DAVISVP2,2013-07-31 17:53:00,
2013-07-31 13:58:00,74.4,63.8,30.08,South,184,6.0,8.0,69,0.00,,,0.00,WUHU216DAVISVP2,2013-07-31 17:58:00,
2013-07-31 14:03:00,74.3,64.5,30.08,South,172,2.0,10.0,71,0.00,,,0.00,WUHU216DAVISVP2,2013-07-31 18:03:00,
2013-07-31 14:08:00,74.4,64.6,30.08,SW,222,2.0,10.0,71,0.00,,,0.00,WUHU216DAVISVP2,2013-07-31 18:08:00,
2013-07-31 14:13:00,74.6,65.5,30.07,SSW,196,8.0,12.0,73,0.00,,,0.00,WUHU216DAVISVP2,2013-07-31 18:13:00,
2013-07-31 14:19:00,74.9,64.7,30.07,South,172,2.0,12.0,70,0.00,,,0.00,WUHU216DAVISVP2,2013-07-31 18:19:00,
2013-07-31 14:24:00,75.3,65.0,30.07,SSE,150,0.0,10.0,70,0.00,,,0.00,WUHU216DAVISVP2,2013-07-31 18:24:00,
2013-07-31 14:29:00,75.5,64.4,30.07,SSW,203,2.0,14.0,68,0.00,,,0.00,WUHU216DAVISVP2,2013-07-31 18:29:00,
2013-07-31 14:34:00,75.6,64.5,30.07,SE,132,6.0,14.0,68,0.00,,,0.00,WUHU216DAVISVP2,2013-07-31 18:34:00,
2013-07-31 14:39:00,75.8,64.7,30.07,SSW,212,0.0,6.0,68,0.00,,,0.00,WUHU216DAVISVP2,2013-07-31 18:39:00,
2013-07-31 14:44:00,75.8,65.1,30.07,SSW,212,0.0,10.0,69,0.00,,,0.00,WUHU216DAVISVP2,2013-07-31 18:44:00,
2013-07-31 14:45:00,75.8,64.7,30.07,SSW,212,0.0,10.0,68,0.00,,,0.00,WUHU216DAVISVP2,2013-07-31 18:45:00,
2013-07-31 14:50:00,75.8,64.7,30.07,WSW,241,4.0,10.0,68,0.00,,,0.00,WUHU216DAVISVP2,2013-07-31 18:50:00,
2013-07-31 14:55:00,75.8,64.3,30.06,South,188,6.0,10.0,67,0.00,,,0.00,WUHU216DAVISVP2,2013-07-31 18:55:00,
2013-07-31 15:00:00,75.9,64.8,30.06,South,176,0.0,10.0,68,0.00,,,0.00,WUHU216DAVISVP2,2013-07-31 19:00:00,
2013-07-31 15:05:00,75.8,64.7,30.06,SSW,199,0.0,10.0,68,0.00,,,0.00,WUHU216DAVISVP2,2013-07-31 19:05:00,
2013-07-31 15:10:00,75.6,64.9,30.06,SSW,194,0.0,10.0,69,0.00,,,0.00,WUHU216DAVISVP2,2013-07-31 19:10:00,
2013-07-31 15:15:00,75.5,65.2,30.06,South,186,0.0,10.0,70,0.00,,,0.00,WUHU216DAVISVP2,2013-07-31 19:15:00,
2013-07-31 15:20:00,75.4,65.1,30.06,SSW,195,2.0,10.0,70,0.00,,,0.00,WUHU216DAVISVP2,2013-07-31 19:20:00,
2013-07-31 15:25:00,75.1,65.6,30.06,South,186,2.0,10.0,72,0.00,,,0.00,WUHU216DAVISVP2,2013-07-31 19:25:00,
2013-07-31 15:30:00,74.9,64.7,30.06,South,188,10.0,10.0,70,0.00,,,0.00,WUHU216DAVISVP2,2013-07-31 19:30:00,
2013-07-31 15:35:00,74.6,64.4,30.05,ENE,59,0.0,10.0,70,0.00,,,0.00,WUHU216DAVISVP2,2013-07-31 19:35:00,
2013-07-31 15:40:00,74.5,64.7,30.05,SSE,168,0.0,10.0,71,0.00,,,0.00,WUHU216DAVISVP2,2013-07-31 19:40:00,
2013-07-31 15:45:00,74.3,64.5,30.05,North,9,4.0,8.0,71,0.00,,,0.00,WUHU216DAVISVP2,2013-07-31 19:45:00,
2013-07-31 15:50:00,74.1,64.7,30.05,South,187,0.0,8.0,72,0.00,,,0.00,WUHU216DAVISVP2,2013-07-31 19:50:00,
2013-07-31 15:55:00,74.0,64.2,30.05,SSW,211,0.0,8.0,71,0.00,,,0.00,WUHU216DAVISVP2,2013-07-31 19:55:00,
2013-07-31 16:00:00,74.1,64.3,30.05,South,188,0.0,10.0,71,0.00,,,0.00,WUHU216DAVISVP2,2013-07-31 20:00:00,
2013-07-31 16:05:00,74.2,64.8,30.04,SSE,153,0.0,10.0,72,0.00,,,0.00,WUHU216DAVISVP2,2013-07-31 20:05:00,
2013-07-31 16:10:00,74.5,64.7,30.04,SSE,152,2.0,14.0,71,0.00,,,0.00,WUHU216DAVISVP2,2013-07-31 20:10:00,
2013-07-31 16:16:00,74.7,64.5,30.04,South,170,2.0,14.0,70,0.00,,,0.00,WUHU216DAVISVP2,2013-07-31 20:16:00,
2013-07-31 16:21:00,75.0,65.2,30.04,WSW,254,0.0,12.0,71,0.00,,,0.00,WUHU216DAVISVP2,2013-07-31 20:21:00,
2013-07-31 16:26:00,75.5,65.6,30.04,South,180,0.0,12.0,71,0.00,,,0.00,WUHU216DAVISVP2,2013-07-31 20:26:00,
2013-07-31 16:31:00,75.7,65.0,30.04,SSW,202,4.0,16.0,69,0.00,,,0.00,WUHU216DAVISVP2,2013-07-31 20:31:00,
2013-07-31 16:36:00,75.9,65.6,30.03,South,172,0.0,16.0,70,0.00,,,0.00,WUHU216DAVISVP2,2013-07-31 20:36:00,
2013-07-31 16:41:00,75.9,65.2,30.03,NNW,336,0.0,10.0,69,0.00,,,0.00,WUHU216DAVISVP2,2013-07-31 20:41:00,
2013-07-31 16:46:00,75.9,64.4,30.03,South,175,6.0,10.0,67,0.00,,,0.00,WUHU216DAVISVP2,2013-07-31 20:46:00,
2013-07-31 16:51:00,76.0,65.3,30.03,SSW,205,0.0,10.0,69,0.00,,,0.00,WUHU216DAVISVP2,2013-07-31 20:51:00,
2013-07-31 16:56:00,76.1,65.8,30.03,South,182,8.0,8.0,70,0.00,,,0.00,WUHU216DAVISVP2,2013-07-31 20:56:00,
2013-07-31 17:01:00,75.7,64.6,30.03,East,92,0.0,14.0,68,0.00,,,0.00,WUHU216DAVISVP2,2013-07-31 21:01:00,
2013-07-31 17:06:00,75.4,64.3,30.03,SSW,211,10.0,14.0,68,0.00,,,0.00,WUHU216DAVISVP2,2013-07-31 21:06:00,
2013-07-31 17:11:00,75.2,64.1,30.03,SSW,196,6.0,10.0,68,0.00,,,0.00,WUHU216DAVISVP2,2013-07-31 21:11:00,
2013-07-31 17:17:00,75.2,64.5,30.03,SW,224,6.0,10.0,69,0.00,,,0.00,WUHU216DAVISVP2,2013-07-31 21:17:00,
2013-07-31 17:22:00,75.2,64.9,30.02,SSW,200,2.0,8.0,70,0.00,,,0.00,WUHU216DAVISVP2,2013-07-31 21:22:00,
2013-07-31 17:27:00,75.2,64.5,30.02,SSE,167,4.0,10.0,69,0.00,,,0.00,WUHU216DAVISVP2,2013-07-31 21:27:00,
2013-07-31 17:32:00,75.2,65.3,30.03,SW,225,2.0,10.0,71,0.00,,,0.00,WUHU216DAVISVP2,2013-07-31 21:32:00,
2013-07-31 17:37:00,75.3,64.6,30.02,South,183,4.0,10.0,69,0.00,,,0.00,WUHU216DAVISVP2,2013-07-31 21:37:00,
2013-07-31 17:42:00,75.4,64.7,30.02,SW,217,4.0,14.0,69,0.00,,,0.00,WUHU216DAVISVP2,2013-07-31 21:42:00,
2013-07-31 17:47:00,75.7,64.6,30.01,SSW,213,2.0,14.0,68,0.00,,,0.00,WUHU216DAVISVP2,2013-07-31 21:47:00,
2013-07-31 17:52:00,75.9,64.8,30.01,South,190,10.0,14.0,68,0.00,,,0.00,WUHU216DAVISVP2,2013-07-31 21:52:00,
2013-07-31 17:57:00,76.2,65.5,30.01,South,186,8.0,12.0,69,0.00,,,0.00,WUHU216DAVISVP2,2013-07-31 21:57:00,
2013-07-31 18:02:00,76.5,64.5,30.01,SSE,163,0.0,14.0,66,0.00,,,0.00,WUHU216DAVISVP2,2013-07-31 22:02:00,
2013-07-31 18:07:00,76.5,64.5,30.01,SSW,202,12.0,16.0,66,0.00,,,0.00,WUHU216DAVISVP2,2013-07-31 22:07:00,
2013-07-31 18:12:00,76.4,64.4,30.00,West,280,2.0,20.0,66,0.00,,,0.00,WUHU216DAVISVP2,2013-07-31 22:12:00,
2013-07-31 18:17:00,76.5,64.9,30.00,WSW,248,2.0,20.0,67,0.00,,,0.00,WUHU216DAVISVP2,2013-07-31 22:17:00,
2013-07-31 18:22:00,76.2,63.8,30.00,South,180,6.0,14.0,65,0.00,,,0.00,WUHU216DAVISVP2,2013-07-31 22:22:00,
2013-07-31 18:27:00,75.8,63.4,30.00,SSE,168,8.0,18.0,65,0.00,,,0.00,WUHU216DAVISVP2,2013-07-31 22:27:00,
2013-07-31 18:32:00,75.6,63.7,30.00,SSE,168,4.0,18.0,66,0.00,,,0.00,WUHU216DAVISVP2,2013-07-31 22:32:00,
2013-07-31 18:37:00,75.4,63.0,29.99,West,276,2.0,12.0,65,0.00,,,0.00,WUHU216DAVISVP2,2013-07-31 22:37:00,
2013-07-31 18:42:00,75.3,63.8,29.99,SSW,203,2.0,12.0,67,0.00,,,0.00,WUHU216DAVISVP2,2013-07-31 22:42:00,
2013-07-31 18:47:00,75.1,63.6,29.99,SSE,167,2.0,10.0,67,0.00,,,0.00,WUHU216DAVISVP2,2013-07-31 22:47:00,
2013-07-31 18:52:00,74.9,63.8,29.99,WSW,238,6.0,8.0,68,0.00,,,0.00,WUHU216DAVISVP2,2013-07-31 22:52:00,
2013-07-31 18:57:00,74.6,63.1,29.99,East,82,0.0,10.0,67,0.00,,,0.00,WUHU216DAVISVP2,2013-07-31 22:57:00,
2013-07-31 19:03:00,74.6,63.1,29.99,SSW,199,4.0,10.0,67,0.00,,,0.00,WUHU216DAVISVP2,2013-07-31 23:03:00,
2013-07-31 19:08:00,74.6,63.1,29.99,SE,139,2.0,10.0,67,0.00,,,0.00,WUHU216DAVISVP2,2013-07-31 23:08:00,
2013-07-31 19:13:00,74.6,63.1,29.99,WSW,248,0.0,10.0,67,0.00,,,0.00,WUHU216DAVISVP2,2013-07-31 23:13:00,
2013-07-31 19:18:00,74.5,63.5,29.99,SSW,207,4.0,12.0,68,0.00,,,0.00,WUHU216DAVISVP2,2013-07-31 23:18:00,
2013-07-31 19:23:00,74.2,62.7,29.99,SW,223,0.0,12.0,67,0.00,,,0.00,WUHU216DAVISVP2,2013-07-31 23:23:00,
2013-07-31 19:28:00,74.0,62.6,29.98,WSW,237,6.0,10.0,67,0.00,,,0.00,WUHU216DAVISVP2,2013-07-31 23:28:00,
2013-07-31 19:33:00,73.8,62.8,29.98,South,175,6.0,10.0,68,0.00,,,0.00,WUHU216DAVISVP2,2013-07-31 23:33:00,
2013-07-31 19:38:00,73.4,62.4,29.98,SSE,168,4.0,10.0,68,0.00,,,0.00,WUHU216DAVISVP2,2013-07-31 23:38:00,
2013-07-31 19:43:00,73.2,62.6,29.98,WSW,246,0.0,10.0,69,0.00,,,0.00,WUHU216DAVISVP2,2013-07-31 23:43:00,
2013-07-31 19:48:00,73.0,62.8,29.98,SSE,159,0.0,8.0,70,0.00,,,0.00,WUHU216DAVISVP2,2013-07-31 23:48:00,
2013-07-31 19:53:00,72.9,63.1,29.98,SSW,200,0.0,10.0,71,0.00,,,0.00,WUHU216DAVISVP2,2013-07-31 23:53:00,
2013-07-31 19:58:00,72.7,63.3,29.98,South,182,0.0,10.0,72,0.00,,,0.00,WUHU216DAVISVP2,2013-07-31 23:58:00,
2013-07-31 20:03:00,72.6,63.2,29.98,South,185,0.0,10.0,72,0.00,,,0.00,WUHU216DAVISVP2,2013-08-01 00:03:00,
2013-07-31 20:08:00,72.5,63.5,29.97,SE,129,0.0,10.0,73,0.00,,,0.00,WUHU216DAVISVP2,2013-08-01 00:08:00,
2013-07-31 20:13:00,72.4,63.4,29.97,South,170,4.0,10.0,73,0.00,,,0.00,WUHU216DAVISVP2,2013-08-01 00:13:00,
2013-07-31 20:18:00,72.3,63.7,29.97,SSE,167,0.0,10.0,74,0.00,,,0.00,WUHU216DAVISVP2,2013-08-01 00:18:00,
2013-07-31 20:23:00,72.1,63.5,29.97,South,183,0.0,10.0,74,0.00,,,0.00,WUHU216DAVISVP2,2013-08-01 00:23:00,
2013-07-31 20:29:00,71.9,63.7,29.97,ESE,117,0.0,10.0,75,0.00,,,0.00,WUHU216DAVISVP2,2013-08-01 00:29:00,
2013-07-31 20:34:00,71.7,63.9,29.97,SE,135,0.0,10.0,76,0.00,,,0.00,WUHU216DAVISVP2,2013-08-01 00:34:00,
2013-07-31 20:39:00,71.5,63.7,29.97,SSW,198,0.0,8.0,76,0.00,,,0.00,WUHU216DAVISVP2,2013-08-01 00:39:00,
2013-07-31 20:44:00,71.3,63.8,29.97,South,173,4.0,10.0,77,0.00,,,0.00,WUHU216DAVISVP2,2013-08-01 00:44:00,
2013-07-31 20:49:00,71.1,63.6,29.96,SSW,198,0.0,12.0,77,0.00,,,0.00,WUHU216DAVISVP2,2013-08-01 00:49:00,
2013-07-31 20:54:00,71.0,63.9,29.97,South,186,4.0,12.0,78,0.00,,,0.00,WUHU216DAVISVP2,2013-08-01 00:54:00,
2013-07-31 20:59:00,70.8,63.7,29.97,SW,218,2.0,8.0,78,0.00,,,0.00,WUHU216DAVISVP2,2013-08-01 00:59:00,
2013-07-31 21:04:00,70.8,64.1,29.97,South,173,0.0,8.0,79,0.00,,,0.00,WUHU216DAVISVP2,2013-08-01 01:04:00,
2013-07-31 21:09:00,70.6,63.9,29.97,SSW,192,4.0,12.0,79,0.00,,,0.00,WUHU216DAVISVP2,2013-08-01 01:09:00,
2013-07-31 21:14:00,70.5,63.8,29.97,South,178,4.0,12.0,79,0.00,,,0.00,WUHU216DAVISVP2,2013-08-01 01:14:00,
2013-07-31 21:19:00,70.4,64.0,29.97,SSW,198,2.0,6.0,80,0.00,,,0.00,WUHU216DAVISVP2,2013-08-01 01:19:00,
2013-07-31 21:24:00,70.2,63.8,29.97,SW,217,2.0,8.0,80,0.00,,,0.00,WUHU216DAVISVP2,2013-08-01 01:24:00,
2013-07-31 21:29:00,70.1,64.1,29.97,South,191,0.0,12.0,81,0.00,,,0.00,WUHU216DAVISVP2,2013-08-01 01:29:00,
2013-07-31 21:34:00,70.0,64.0,29.97,South,170,2.0,12.0,81,0.00,,,0.00,WUHU216DAVISVP2,2013-08-01 01:34:00,
2013-07-31 21:39:00,69.8,64.1,29.96,South,176,0.0,14.0,82,0.00,,,0.00,WUHU216DAVISVP2,2013-08-01 01:39:00,
2013-07-31 21:44:00,69.7,64.4,29.96,ESE,110,4.0,14.0,83,0.00,,,0.00,WUHU216DAVISVP2,2013-08-01 01:44:00,
2013-07-31 21:49:00,69.7,64.7,29.96,ENE,57,0.0,14.0,84,0.00,,,0.00,WUHU216DAVISVP2,2013-08-01 01:49:00,
2013-07-31 21:54:00,69.7,64.7,29.96,SE,141,0.0,14.0,84,0.00,,,0.00,WUHU216DAVISVP2,2013-08-01 01:54:00,
2013-07-31 21:59:00,69.7,64.7,29.96,SSE,151,4.0,12.0,84,0.00,,,0.00,WUHU216DAVISVP2,2013-08-01 01:59:00,
2013-07-31 22:04:00,69.6,64.9,29.96,SSW,207,2.0,12.0,85,0.00,,,0.00,WUHU216DAVISVP2,2013-08-01 02:04:00,
2013-07-31 22:09:00,69.5,64.8,29.96,SSE,155,4.0,10.0,85,0.00,,,0.00,WUHU216DAVISVP2,2013-08-01 02:09:00,
2013-07-31 22:14:00,69.4,65.0,29.96,SSW,200,2.0,12.0,86,0.00,,,0.00,WUHU216DAVISVP2,2013-08-01 02:14:00,
2013-07-31 22:19:00,69.3,64.9,29.96,ESE,122,2.0,14.0,86,0.00,,,0.00,WUHU216DAVISVP2,2013-08-01 02:19:00,
2013-07-31 22:24:00,69.2,65.2,29.96,South,175,0.0,14.0,87,0.00,,,0.00,WUHU216DAVISVP2,2013-08-01 02:24:00,
2013-07-31 22:30:00,69.0,65.0,29.96,ESE,123,2.0,14.0,87,0.00,,,0.00,WUHU216DAVISVP2,2013-08-01 02:30:00,
2013-07-31 22:35:00,68.9,65.2,29.96,SSE,165,4.0,14.0,88,0.00,,,0.00,WUHU216DAVISVP2,2013-08-01 02:35:00,
2013-07-31 22:40:00,68.8,65.1,29.96,SSE,158,0.0,10.0,88,0.00,,,0.00,WUHU216DAVISVP2,2013-08-01 02:40:00,
2013-07-31 22:45:00,68.7,65.3,29.96,South,177,2.0,8.0,89,0.00,,,0.00,WUHU216DAVISVP2,2013-08-01 02:45:00,
2013-07-31 22:50:00,68.6,65.2,29.96,WSW,241,2.0,12.0,89,0.00,,,0.00,WUHU216DAVISVP2,2013-08-01 02:50:00,
2013-07-31 22:55:00,68.4,65.0,29.96,SSW,193,0.0,12.0,89,0.00,,,0.00,WUHU216DAVISVP2,2013-08-01 02:55:00,
2013-07-31 23:00:00,68.3,65.2,29.96,SSW,192,0.0,8.0,90,0.00,,,0.00,WUHU216DAVISVP2,2013-08-01 03:00:00,
2013-07-31 23:05:00,68.2,65.1,29.96,NNW,332,2.0,8.0,90,0.00,,,0.00,WUHU216DAVISVP2,2013-08-01 03:05:00,
2013-07-31 23:10:00,68.1,65.0,29.96,SE,134,0.0,8.0,90,0.00,,,0.00,WUHU216DAVISVP2,2013-08-01 03:10:00,
2013-07-31 23:15:00,68.0,65.2,29.96,West,278,0.0,8.0,91,0.00,,,0.00,WUHU216DAVISVP2,2013-08-01 03:15:00,
2013-07-31 23:20:00,67.8,65.1,29.95,SSE,153,4.0,6.0,91,0.00,,,0.00,WUHU216DAVISVP2,2013-08-01 03:20:00,
2013-07-31 23:25:00,67.8,65.1,29.95,SSE,158,0.0,6.0,91,0.00,,,0.00,WUHU216DAVISVP2,2013-08-01 03:25:00,
2013-07-31 23:30:00,67.7,65.3,29.95,South,171,4.0,8.0,92,0.00,,,0.00,WUHU216DAVISVP2,2013-08-01 03:30:00,
2013-07-31 23:35:00,67.6,65.2,29.94,South,183,0.0,8.0,92,0.00,,,0.00,WUHU216DAVISVP2,2013-08-01 03:35:00,
2013-07-31 23:40:00,67.6,65.2,29.94,South,178,0.0,8.0,92,0.00,,,0.00,WUHU216DAVISVP2,2013-08-01 03:40:00,
2013-07-31 23:45:00,67.6,65.2,29.94,SSE,152,2.0,10.0,92,0.00,,,0.00,WUHU216DAVISVP2,2013-08-01 03:45:00,
2013-07-31 23:50:00,67.6,65.2,29.94,SE,137,0.0,10.0,92,0.00,,,0.00,WUHU216DAVISVP2,2013-08-01 03:50:00,
2013-07-31 23:55:00,67.6,65.2,29.94,South,179,0.0,10.0,92,0.00,,,0.00,WUHU216DAVISVP2,2013-08-01 03:55:00,